sat.trackr.live / text

‹ back to catalog

STARLINK-36235

NORAD 68400 · 2026-063W

PAYLOAD ACTIVE UNKNOWN

§ Identity

Operator
Country
US
Launch date
2026-03-26
Launch site
AFWTR
Launch vehicle
Mass (kg)
RCS (m²)

Purposes: comms

External: N2YO · Heavens-Above · Gunter

§ Orbital elements

Epoch: 2026-09-19T08:23:13.845120Z

Period
93.91 min
Inclination
97.2869°
Eccentricity
0.0002688
Mean motion
15.33447881 rev/d
Perigee alt
463.7 km
Apogee alt
467.4 km
Semi-major
6,843.7 km
B*
4.9068e-4
RAAN
43.2486°
Arg perigee
91.1147°
Mean anomaly
269.0404°
Rev number
2,757

§ Raw data

STARLINK-362351 68400U 26063W   26262.34946580  .00015802  00000+0  49068-3 0  99972 68400  97.2869  43.2486 0002688  91.1147 269.0404 15.33447881 27575

JSON: /api/v1/satellites/68400 · /tle

For live sub-satellite position, see the globe view (requires WebGL).

§ Visibility from observer

Set your observer location to see the next 7 days of passes ≥ 10°. The values pass through the URL so the page stays shareable.

No JS? Fill the form by hand. The geolocation button needs JavaScript.